STARLINK-34313, 64166

Orbit data source: Space-Track

STARLINK-34313, 64166 is a payload satellite owned by SpaceX/Seattle (US) in SSO that was launched on Tue, 27 May 2025 UTC via an FALCON 9 launch vehicle from the Air Force Western Test Range (AFWTR). Payload-class satellites include a variety of spacecraft equipped with specific instruments for various scientific and technological missions. These include communications satellites like Starlink; space stations such as the ISS; scientific satellites like the Hubble; Earth observation satellites from companies like Planet Labs, Umbra, and HawkEye 360; GPS; miniature CubeSats for education and research; and military/defense satellites.

Loading next visibility...
Identifier
64166, 2025-112W
Orbit
SSO
Country
Flag of USUS
Related business
Manufacturer
SpaceX/Seattle
Mission
Operational Commercial Communications
Bus & Motor
STARLINK V2MO, Unknown motor
Mass
575 kg wet, ~530 kg dry
Launch date (UTC)
2025-05-27 (1 year ago)
Launch vehicle
FALCON 9
Launch site
Air Force Western Test Range (AFWTR)
Object type
Payload
Rocket body
Debris
Shape & HBR
Box + 2 Pan, 17.7 m
Radar Cross Section
36.964 m², Large (>1 m²)

Expand to show TLE details & history
Last TLE update: 8 hours ago

TLE from 8 hours ago
0 STARLINK-34313
1 64166U 25112W   26145.40890657  .00006055  00000-0  42310-3 0  9990
2 64166  97.4453 196.7956 0002051 133.1150 227.0249 15.05672734 54850
Epoch: 2026-05-25T09:48Z
TLE epoch observation values (Epoch: 2026-05-25T09:48:49.527Z)
Latitude
-0.00004°
Longitude
166.59212°
Altitude
553.48 km
Speed
7.584 km/s
True Right ascension
13h 07m 10s
True Declination
0° 00' 00"
Sunlit
Object was in full shadow at epoch
Visualization orbit readout
Latitude
Unknown
Longitude
Unknown
Altitude
Unknown
Speed
Unknown
Apparent Right ascension
Unknown
Apparent Declination
Unknown
Sunlit
N/A
Visualization observer readout
Local Sidereal Time
02:48:06
Azimuth
Unknown
Elevation
Unknown
Doppler factor
Unknown
Orbital elements
Apogee altitude
547.848 km
Perigee altitude
545.008 km
Semi-major axis
6,924.565 km
Eccentricity
0.00021
Inclination
97.4453°
RAAN
196.7956°
Arg. of periapsis
133.115°
True anomaly
227.00771°
Mean anomaly
227.0249°
Eccentric anomaly
227.0163°
Mean motion
3.76664 °/min
Orbital period
95.58 mins
BSTAR
0.0004231
Loading maneuver chart data...
Computing Atmospheric mass density...
Loading historical data...
Loading historical data...
Loading historical data...
Loading historical data...
Loading historical data...
Loading historical data...
Loading historical data...

Documentation

Showing up to 5 results
|